Wetbulb
53.22 52.73 52.97 53.73 54.89 54.67 54.72 55.52 55.85 56.95 57.81 58.20 57.05 54.73 54.31 53.85 53.06 51.50 50.29 49.09 49.60 49.58
53.82 53.53 53.87 54.64 55.57 55.51 55.79 57.38 56.49 56.91 57.76 58.31 57.11 55.97 54.29 53.73 51.66 50.51 49.89 49.61 49.96 49.53
54.90 55.08 55.34 55.95 55.79 55.12 55.53 55.93 55.77 55.27 55.69 55.31 54.52 54.41 53.83 52.30 51.05 49.88 49.13 49.19 49.26 48.58
55.77 55.99 56.68 57.02 57.58 56.11 55.45 55.85 56.37 56.07 54.94 53.48 53.60 50.91 50.75 49.34 48.38 48.76 48.01 48.28 48.47 47.29
57.27 57.66 57.56 57.77 57.69 57.27 57.05 57.38 56.25 55.17 53.70 52.08 50.90 50.23 50.05 48.22 48.17 47.89 47.24 47.04 46.73 45.24
57.39 57.65 57.77 58.08 58.29 57.78 58.46 58.01 57.77 57.63 54.74 52.91 51.94 49.82 48.95 48.46 47.68 47.31 46.93 46.04 45.37 44.28
57.54 57.93 58.27 58.41 58.41 58.32 58.08 57.80 57.31 54.64 53.64 52.22 50.23 49.71 48.20 47.36 46.57 45.96 45.69 45.00 44.49 43.76
58.07 58.60 58.44 58.21 58.44 58.16 57.79 57.33 54.43 52.67 51.08 49.63 48.13 47.74 46.84 46.07 45.06 44.32 43.88 43.83 43.68 42.82
55.95 56.45 56.73 56.09 54.36 53.06 51.67 51.09 51.57 49.55 47.60 46.80 47.18 43.68 41.41 43.52 44.05 43.74 43.01 41.90 41.21 41.18
55.43 55.31 53.36 52.22 51.16 49.78 47.94 46.64 46.33 45.76 46.14 45.14 43.71 39.97 40.60 40.25 42.93 42.11 40.82 40.13 38.94 38.66
53.50 50.96 49.83 48.87 47.61 45.11 45.16 44.20 43.66 43.23 43.62 43.36 42.64 39.09 38.81 38.03 39.17 38.49 38.25 37.74 36.36 33.31
50.68 49.02 47.45 45.24 43.40 41.80 41.48 41.09 40.76 41.27 40.70 40.41 39.30 37.60 36.82 37.06 36.64 33.54 31.66 31.77 31.21 30.54
48.21 46.63 44.00 40.97 40.48 38.08 38.33 37.90 38.24 35.97 35.38 36.42 36.06 36.57 36.71 34.96 31.28 28.98 27.53 27.80 27.66 28.94
44.37 42.66 40.12 38.31 38.21 37.17 36.77 35.66 34.64 32.38 32.17 32.64 32.74 33.08 34.08 33.29 30.65 28.64 26.92 25.78 24.99 24.76
MSLP
1014.43 1014.91 1015.39 1015.47 1015.98 1016.05 1016.23 1016.16 1016.48 1016.82 1016.92 1016.89 1017.36 1018.29 1018.73 1019.19 1019.60 1019.67 1020.03 1020.31 1020.28 1020.62
1013.63 1014.04 1014.18 1014.97 1015.34 1015.66 1015.73 1015.85 1016.05 1016.20 1016.60 1016.63 1016.63 1017.16 1018.06 1018.39 1018.24 1019.10 1019.47 1019.82 1020.10 1020.37
1012.74 1013.26 1013.75 1014.38 1014.76 1015.13 1015.43 1015.60 1015.81 1015.96 1016.30 1016.55 1016.19 1017.17 1017.75 1018.00 1018.18 1018.57 1019.12 1019.32 1019.86 1020.19
1011.97 1012.79 1013.65 1014.02 1014.02 1014.14 1014.50 1014.79 1015.10 1015.28 1015.56 1015.59 1016.22 1016.95 1017.47 1017.87 1018.26 1018.45 1018.76 1019.14 1019.63 1020.29
1011.01 1011.58 1012.09 1012.21 1012.05 1012.66 1012.82 1013.15 1013.87 1014.72 1013.91 1014.16 1015.86 1016.64 1016.99 1017.34 1017.63 1018.22 1018.41 1018.94 1019.42 1020.02
1009.65 1010.26 1009.95 1009.91 1010.39 1010.95 1011.84 1012.57 1013.12 1013.26 1013.49 1014.20 1015.17 1015.99 1016.37 1016.93 1017.20 1017.72 1018.24 1018.75 1019.14 1019.83
1008.13 1008.42 1008.86 1009.25 1010.05 1010.43 1010.92 1011.52 1011.87 1012.54 1013.08 1014.14 1014.94 1015.46 1016.15 1016.56 1017.06 1017.63 1018.19 1018.65 1019.18 1019.66
1006.98 1007.57 1008.22 1008.85 1009.34 1010.10 1010.53 1011.03 1011.48 1012.12 1012.78 1013.70 1014.42 1015.16 1015.86 1016.21 1016.72 1017.56 1018.32 1018.73 1019.15 1019.65
1006.66 1007.46 1007.82 1008.55 1009.24 1009.81 1010.52 1011.06 1011.60 1012.34 1013.10 1013.92 1014.31 1014.90 1015.70 1016.19 1017.03 1017.80 1018.38 1018.86 1019.36 1019.99
1006.30 1006.95 1007.65 1008.52 1009.24 1009.86 1010.55 1011.23 1011.81 1012.55 1013.12 1013.63 1014.39 1015.24 1015.80 1016.31 1016.98 1017.61 1018.10 1018.65 1019.37 1020.11
1006.35 1007.11 1007.87 1008.56 1009.27 1009.93 1010.65 1011.06 1011.80 1012.49 1013.09 1013.79 1014.68 1015.26 1015.80 1016.40 1016.95 1017.64 1018.36 1018.99 1019.63 1020.36
1006.54 1007.44 1008.14 1008.62 1009.22 1009.98 1010.56 1011.44 1012.15 1012.93 1013.66 1014.34 1015.12 1015.53 1016.07 1016.72 1017.63 1018.51 1019.32 1019.79 1020.20 1020.70
1006.99 1007.67 1008.58 1009.38 1010.11 1010.80 1011.53 1012.43 1013.02 1014.14 1014.81 1015.39 1016.03 1016.44 1016.88 1017.42 1018.26 1019.20 1019.96 1020.69 1021.16 1021.72
1007.48 1008.22 1009.04 1009.98 1010.88 1011.78 1012.76 1013.64 1014.63 1015.51 1016.23 1016.55 1016.96 1017.58 1017.86 1018.24 1018.63 1019.49 1020.47 1021.22 1021.79 1022.20
Wind_Speed
17 11 13 13 9 6 8 7 6 10 10 11 7 5 5 5 6 8 8 8 6 4
15 16 13 11 7 6 7 7 6 7 7 7 6 11 11 10 11 9 9 9 6 4
14 14 12 8 8 8 7 5 5 5 5 6 7 10 9 6 8 10 7 5 7 5
15 12 10 12 14 9 7 8 9 8 8 7 8 6 8 7 7 9 7 5 7 5
16 16 16 16 18 15 15 12 10 8 9 9 9 9 11 10 9 9 8 8 8 6
18 18 21 20 17 16 15 14 15 13 10 9 10 10 9 9 8 7 7 8 8 9
19 21 19 15 16 15 15 17 15 10 11 10 9 9 8 8 7 6 6 8 8 9
18 15 12 12 12 12 11 12 8 8 7 8 9 7 9 9 8 8 7 7 7 7
9 9 9 8 8 8 7 7 7 8 10 9 5 10 11 10 8 7 8 7 6 7
8 9 9 9 9 8 9 10 9 9 9 8 6 13 13 11 7 7 7 8 8 7
10 10 10 11 9 8 7 9 8 8 8 8 6 11 12 12 8 8 7 7 7 8
10 11 10 10 10 8 9 7 6 6 7 7 6 13 14 12 9 9 9 8 7 6
9 10 8 8 8 4 6 7 8 8 7 9 8 12 13 11 7 8 6 6 7 8
8 8 9 8 7 7 8 10 10 10 9 11 10 9 13 11 6 6 5 4 4 3
Wind_Direction
215 218 222 225 226 221 227 231 214 207 209 205 168 183 184 208 218 211 211 209 186 181
211 219 223 225 232 231 235 231 215 222 215 205 190 211 206 212 203 196 202 207 198 179
213 223 229 225 220 220 224 212 210 181 179 192 197 216 211 214 195 190 198 174 173 179
217 215 218 225 236 204 162 173 200 193 195 185 215 188 194 200 190 190 169 160 180 172
208 199 201 206 205 180 183 184 182 200 221 176 185 193 201 196 186 184 170 172 161 145
205 205 211 222 213 199 202 189 194 209 217 201 197 194 192 189 168 164 168 164 160 162
203 208 217 219 219 208 200 199 204 197 180 185 182 184 176 163 155 156 162 161 155 161
208 206 204 201 198 202 201 200 181 169 154 160 164 165 170 165 156 157 157 150 149 130
167 163 172 168 158 150 151 142 147 144 145 152 161 166 152 144 150 151 150 144 111 104
156 162 151 152 148 150 143 135 133 138 144 139 131 152 152 134 139 138 132 133 130 122
144 140 139 141 140 127 135 130 130 123 124 129 139 142 130 120 114 108 104 102 102 112
143 144 147 142 136 126 120 114 116 121 122 122 118 130 125 114 107 100 92 90 93 107
135 134 125 118 114 81 88 100 93 82 76 98 104 114 115 112 113 107 102 86 77 80
110 109 107 97 98 99 101 94 90 84 69 70 70 74 93 91 100 111 104 101 89 54